| time (UTC) | temp F | wind direction | speed MPH | gust MPH | rain 1hr in | rain 24hr in | rain mn in | humidity % | barometer mb |
| 20260901043941 | 72 | 94 | 0.0 | 0.0 | 0.00 | 0.00 | 0.00 | 1018.6 | |
| 20260901042943 | 72 | 44 | 0.0 | 0.0 | 0.00 | 0.00 | 0.00 | 1018.8 | |
| 20260901041946 | 73 | 44 | 0.0 | 0.0 | 0.00 | 0.00 | 0.00 | 1018.9 | |
| 20260901040939 | 72 | 301 | 0.0 | 0.0 | 0.00 | 0.00 | 0.00 | 1018.9 | |
| 20260901035942 | 72 | 187 | 0.0 | 0.0 | 0.00 | 0.00 | 0.00 | 1018.9 | |
| 20260901034945 | 73 | 187 | 0.0 | 0.0 | 0.00 | 0.00 | 0.00 | 1018.8 | |
| 20260901033930 | 73 | 187 | 0.0 | 0.0 | 0.00 | 0.00 | 0.00 | 1018.9 | |
| 20260901032932 | 73 | 217 | 1.0 | 1.0 | 0.00 | 0.00 | 0.00 | 1018.8 | |
| 20260901031935 | 74 | 354 | 0.0 | 0.0 | 0.00 | 0.00 | 0.00 | 1018.9 | |
| 20260901030937 | 74 | 354 | 0.0 | 0.0 | 0.00 | 0.00 | 0.00 | 1018.9 | |
| 20260901025933 | 74 | 354 | 0.0 | 0.0 | 0.00 | 0.00 | 0.00 | 1018.9 | |
| 20260901024935 | 74 | 354 | 0.0 | 0.0 | 0.00 | 0.00 | 0.00 | 1019.0 | |
| 20260901023938 | 74 | 354 | 0.0 | 0.0 | 0.00 | 0.00 | 0.00 | 1019.1 | |
| 20260901022941 | 74 | 27 | 3.0 | 3.0 | 0.00 | 0.00 | 0.00 | 1019.2 | |
| 20260901021943 | 74 | 6 | 0.0 | 0.0 | 0.00 | 0.00 | 0.00 | 1019.3 | |
| 20260901020946 | 75 | 17 | 0.0 | 2.0 | 0.00 | 0.00 | 0.00 | 1019.3 | |
| 20260901015949 | 75 | 38 | 2.0 | 2.0 | 0.00 | 0.00 | 0.00 | 1019.4 | |
| 20260901014943 | 75 | 10 | 0.0 | 0.0 | 0.00 | 0.00 | 0.00 | 1019.5 | |
| 20260901013946 | 76 | 177 | 1.0 | 1.0 | 0.00 | 0.00 | 0.00 | 1019.7 | |
| 20260901012947 | 76 | 69 | 1.0 | 2.0 | 0.00 | 0.00 | 0.00 | 1019.6 | |
| 20260901011950 | 76 | 149 | 0.0 | 0.0 | 0.00 | 0.00 | 0.00 | 1019.6 | |
| 20260901010950 | 76 | 149 | 0.0 | 0.0 | 0.00 | 0.00 | 0.00 | 1019.7 | |
| 20260901005953 | 76 | 149 | 0.0 | 0.0 | 0.00 | 0.00 | 0.00 | 1019.7 | |
| 20260901004956 | 76 | 149 | 0.0 | 0.0 | 0.00 | 0.00 | 0.00 | 1019.8 | |
| 20260901003950 | 76 | 149 | 0.0 | 0.0 | 0.00 | 0.00 | 0.00 | 1019.9 | |
| 20260901002953 | 77 | 169 | 1.0 | 1.0 | 0.00 | 0.00 | 0.00 | 1019.8 | |
| 20260901001955 | 76 | 110 | 2.0 | 3.0 | 0.00 | 0.00 | 0.00 | 1019.9 | |
| 20260901000958 | 76 | 121 | 2.0 | 3.0 | 0.00 | 0.00 | 0.00 | 1019.9 | |
| 20260901000000 | 77 | 113 | 2.0 | 1.0 | 0.00 | 0.00 | 0.00 | 1019.8 | |
| 20260831234937 | 77 | 111 | 1.0 | 1.0 | 0.00 | 0.00 | 0.00 | 1019.9 | |
| 20260831233940 | 77 | 150 | 2.0 | 3.0 | 0.00 | 0.00 | 0.00 | 1019.9 | |
| 20260831232936 | 77 | 77 | 1.0 | 1.0 | 0.00 | 0.00 | 0.00 | 1019.8 | |
| 20260831231936 | 77 | 156 | 2.0 | 2.0 | 0.00 | 0.00 | 0.00 | 1019.8 | |
| 20260831230938 | 77 | 136 | 3.0 | 2.0 | 0.00 | 0.00 | 0.00 | 1019.7 | |
| 20260831225938 | 77 | 90 | 4.0 | 2.0 | 0.00 | 0.00 | 0.00 | 1019.6 | |
| 20260831224940 | 77 | 84 | 2.0 | 2.0 | 0.00 | 0.00 | 0.00 | 1019.6 | |
| 20260831223943 | 77 | 203 | 2.0 | 2.0 | 0.00 | 0.00 | 0.00 | 1019.6 | |
| 20260831222945 | 77 | 150 | 4.0 | 2.0 | 0.00 | 0.00 | 0.00 | 1019.5 | |
| 20260831221939 | 77 | 90 | 2.0 | 5.0 | 0.00 | 0.00 | 0.00 | 1019.5 | |
| 20260831220941 | 78 | 63 | 3.0 | 2.0 | 0.00 | 0.00 | 0.00 | 1019.5 | |
| 20260831215944 | 78 | 121 | 4.0 | 2.0 | 0.00 | 0.00 | 0.00 | 1019.5 | |
| 20260831214947 | 78 | 172 | 3.0 | 5.0 | 0.00 | 0.00 | 0.00 | 1019.4 | |
| 20260831213939 | 78 | 131 | 4.0 | 4.0 | 0.00 | 0.00 | 0.00 | 1019.4 | |
| 20260831212941 | 78 | 108 | 2.0 | 3.0 | 0.00 | 0.00 | 0.00 | 1019.3 | |
| 20260831211943 | 78 | 131 | 2.0 | 1.0 | 0.00 | 0.00 | 0.00 | 1019.3 | |
| 20260831210939 | 78 | 113 | 4.0 | 3.0 | 0.00 | 0.00 | 0.00 | 1019.3 | |
| 20260831205942 | 78 | 138 | 3.0 | 3.0 | 0.00 | 0.00 | 0.00 | 1019.2 | |
| 20260831204944 | 78 | 139 | 2.0 | 2.0 | 0.00 | 0.00 | 0.00 | 1019.2 | |
| 20260831203941 | 78 | 131 | 4.0 | 3.0 | 0.00 | 0.00 | 0.00 | 1019.1 | |
| 20260831202937 | 79 | 146 | 5.0 | 6.0 | 0.00 | 0.00 | 0.00 | 1019.0 | |
| 20260831201939 | 78 | 117 | 6.0 | 4.0 | 0.00 | 0.00 | 0.00 | 1018.9 | |
| 20260831200942 | 79 | 146 | 6.0 | 8.0 | 0.00 | 0.00 | 0.00 | 1018.7 | |
| 20260831195938 | 79 | 167 | 6.0 | 4.0 | 0.00 | 0.00 | 0.00 | 1018.5 | |
| 20260831194940 | 79 | 139 | 5.0 | 5.0 | 0.00 | 0.00 | 0.00 | 1018.3 | |
| 20260831193939 | 78 | 111 | 5.0 | 4.0 | 0.00 | 0.00 | 0.00 | 1018.3 | |
| 20260831192936 | 79 | 142 | 8.0 | 5.0 | 0.00 | 0.00 | 0.00 | 1018.1 | |
| 20260831191939 | 79 | 143 | 5.0 | 5.0 | 0.00 | 0.00 | 0.00 | 1017.9 | |
| 20260831190941 | 79 | 186 | 4.0 | 5.0 | 0.00 | 0.00 | 0.00 | 1017.8 | |
| 20260831185933 | 80 | 138 | 6.0 | 4.0 | 0.00 | 0.00 | 0.00 | 1017.6 | |
| 20260831184927 | 80 | 134 | 4.0 | 7.0 | 0.00 | 0.00 | 0.00 | 1017.7 | |
| 20260831183930 | 80 | 169 | 3.0 | 5.0 | 0.00 | 0.00 | 0.00 | 1017.6 | |
| 20260831183008 | 80 | 167 | 7.0 | 8.0 | 0.00 | 0.00 | 0.00 | 1017.4 | |
| 20260831182932 | 80 | 167 | 7.0 | 8.0 | 0.00 | 0.00 | 0.00 | 1017.4 | |
| 20260831181935 | 81 | 121 | 6.0 | 6.0 | 0.00 | 0.00 | 0.00 | 1017.3 | |
| 20260831180937 | 81 | 117 | 6.0 | 8.0 | 0.00 | 0.00 | 0.00 | 1017.3 | |
| 20260831175940 | 81 | 125 | 7.0 | 7.0 | 0.00 | 0.00 | 0.00 | 1017.2 | |
| 20260831174939 | 82 | 110 | 6.0 | 5.0 | 0.00 | 0.00 | 0.00 | 1017.1 | |
| 20260831173933 | 82 | 152 | 4.0 | 4.0 | 0.00 | 0.00 | 0.00 | 1017.1 | |
| 20260831172936 | 83 | 131 | 6.0 | 7.0 | 0.00 | 0.00 | 0.00 | 1017.0 | |
| 20260831171938 | 83 | 162 | 4.0 | 4.0 | 0.00 | 0.00 | 0.00 | 1017.0 | |
| 20260831170941 | 84 | 127 | 6.0 | 5.0 | 0.00 | 0.00 | 0.00 | 1017.0 | |
| 20260831165943 | 84 | 132 | 5.0 | 5.0 | 0.00 | 0.00 | 0.00 | 1017.1 | |
| 20260831164943 | 84 | 232 | 7.0 | 9.0 | 0.00 | 0.00 | 0.00 | 1017.2 | |
| 20260831163945 | 84 | 201 | 8.0 | 13.0 | 0.00 | 0.00 | 0.00 | 1017.2 | |
| 20260831162941 | 84 | 203 | 6.0 | 9.0 | 0.00 | 0.00 | 0.00 | 1017.3 | |
| 20260831161942 | 84 | 195 | 8.0 | 10.0 | 0.00 | 0.00 | 0.00 | 1017.4 | |
| 20260831160944 | 84 | 229 | 9.0 | 10.0 | 0.00 | 0.00 | 0.00 | 1017.3 | |
| 20260831155946 | 85 | 203 | 7.0 | 8.0 | 0.00 | 0.00 | 0.00 | 1017.5 | |
| 20260831154949 | 85 | 146 | 8.0 | 6.0 | 0.00 | 0.00 | 0.00 | 1017.6 | |
| 20260831153947 | 84 | 136 | 8.0 | 5.0 | 0.00 | 0.00 | 0.00 | 1017.6 | |
| 20260831152950 | 84 | 146 | 8.0 | 12.0 | 0.00 | 0.00 | 0.00 | 1017.6 | |
| 20260831151942 | 84 | 143 | 7.0 | 6.0 | 0.00 | 0.00 | 0.00 | 1017.7 | |
| 20260831150942 | 84 | 163 | 6.0 | 11.0 | 0.00 | 0.00 | 0.00 | 1017.5 | |
| 20260831145944 | 85 | 141 | 6.0 | 7.0 | 0.00 | 0.00 | 0.00 | 1017.5 | |
| 20260831144947 | 85 | 134 | 11.0 | 8.0 | 0.00 | 0.00 | 0.00 | 1017.5 | |
| 20260831143949 | 86 | 125 | 7.0 | 6.0 | 0.00 | 0.00 | 0.00 | 1017.5 | |
| 20260831142950 | 87 | 142 | 7.0 | 12.0 | 0.00 | 0.00 | 0.00 | 1017.6 | |
| 20260831141952 | 87 | 128 | 7.0 | 6.0 | 0.00 | 0.00 | 0.00 | 1017.5 | |
| 20260831140948 | 88 | 172 | 9.0 | 10.0 | 0.00 | 0.00 | 0.00 | 1017.4 | |
| 20260831135951 | 88 | 153 | 6.0 | 7.0 | 0.00 | 0.00 | 0.00 | 1017.2 | |
| 20260831134954 | 88 | 149 | 11.0 | 9.0 | 0.00 | 0.00 | 0.00 | 1017.2 | |
| 20260831133956 | 88 | 132 | 10.0 | 12.0 | 0.00 | 0.00 | 0.00 | 1017.1 | |
| 20260831132959 | 87 | 121 | 10.0 | 9.0 | 0.00 | 0.00 | 0.00 | 1017.0 | |
| 20260831132001 | 88 | 100 | 7.0 | 7.0 | 0.00 | 0.00 | 0.00 | 1017.0 | |
| 20260831131001 | 88 | 172 | 4.0 | 3.0 | 0.00 | 0.00 | 0.00 | 1016.9 | |
| 20260831125957 | 88 | 200 | 10.0 | 4.0 | 0.00 | 0.00 | 0.00 | 1017.0 | |
| 20260831124959 | 89 | 180 | 5.0 | 9.0 | 0.00 | 0.00 | 0.00 | 1017.1 | |
| 20260831124002 | 89 | 132 | 5.0 | 7.0 | 0.00 | 0.00 | 0.00 | 1017.2 | |
| 20260831123005 | 88 | 111 | 6.0 | 3.0 | 0.00 | 0.00 | 0.00 | 1017.2 | |
| 20260831122007 | 87 | 145 | 9.0 | 6.0 | 0.00 | 0.00 | 0.00 | 1017.3 | |
| 20260831121006 | 89 | 75 | 2.0 | 5.0 | 0.00 | 0.00 | 0.00 | 1017.3 | |
| 20260831120007 | 88 | 132 | 8.0 | 5.0 | 0.00 | 0.00 | 0.00 | 1017.5 | |
| 20260831115003 | 87 | 125 | 0.0 | 1.0 | 0.00 | 0.00 | 0.00 | 1017.6 | |
| 20260831114006 | 87 | 121 | 4.0 | 3.0 | 0.00 | 0.00 | 0.00 | 1017.8 | |
| 20260831113009 | 88 | 49 | 3.0 | 1.0 | 0.00 | 0.00 | 0.00 | 1017.7 | |
| 20260831112011 | 88 | 155 | 4.0 | 4.0 | 0.00 | 0.00 | 0.00 | 1017.7 | |
| 20260831111014 | 86 | 250 | 5.0 | 2.0 | 0.00 | 0.00 | 0.00 | 1017.7 | |
| 20260831110014 | 86 | 194 | 4.0 | 0.0 | 0.00 | 0.00 | 0.00 | 1017.9 | |
| 20260831105014 | 85 | 181 | 4.0 | 5.0 | 0.00 | 0.00 | 0.00 | 1018.0 | |
| 20260831104010 | 85 | 156 | 8.0 | 8.0 | 0.00 | 0.00 | 0.00 | 1018.1 | |
| 20260831103012 | 84 | 257 | 3.0 | 3.0 | 0.00 | 0.00 | 0.00 | 1018.1 | |
| 20260831102014 | 83 | 297 | 2.0 | 0.0 | 0.00 | 0.00 | 0.00 | 1018.2 | |
| 20260831101015 | 84 | 277 | 0.0 | 1.0 | 0.00 | 0.00 | 0.00 | 1018.3 | |
| 20260831100014 | 82 | 245 | 0.0 | 0.0 | 0.00 | 0.00 | 0.00 | 1018.4 | |
| 20260831095017 | 81 | 309 | 2.0 | 3.0 | 0.00 | 0.00 | 0.00 | 1018.4 | |
| 20260831094019 | 81 | 270 | 0.0 | 4.0 | 0.00 | 0.00 | 0.00 | 1018.5 | |
| 20260831093007 | 81 | 305 | 0.0 | 0.0 | 0.00 | 0.00 | 0.00 | 1018.5 | |
| 20260831092007 | 81 | 30 | 0.0 | 0.0 | 0.00 | 0.00 | 0.00 | 1018.6 | |
| 20260831091007 | 79 | 39 | 0.0 | 0.0 | 0.00 | 0.00 | 0.00 | 1018.6 | |
| 20260831090009 | 79 | 7 | 0.0 | 4.0 | 0.00 | 0.00 | 0.00 | 1018.6 | |
| 20260831085008 | 77 | 288 | 0.0 | 0.0 | 0.00 | 0.00 | 0.00 | 1018.7 | |
| 20260831084004 | 77 | 336 | 0.0 | 0.0 | 0.00 | 0.00 | 0.00 | 1018.7 | |
| 20260831083004 | 76 | 308 | 0.0 | 0.0 | 0.00 | 0.00 | 0.00 | 1018.4 | |
| 20260831081956 | 75 | 46 | 0.0 | 0.0 | 0.00 | 0.00 | 0.00 | 1018.7 | |
| 20260831080959 | 74 | 305 | 0.0 | 2.0 | 0.00 | 0.00 | 0.00 | 1018.7 | |
| 20260831075958 | 72 | 7 | 3.0 | 2.0 | 0.00 | 0.00 | 0.00 | 1018.6 | |
| 20260831074957 | 70 | 7 | 5.0 | 4.0 | 0.00 | 0.00 | 0.00 | 1018.6 | |
| 20260831073959 | 69 | 333 | 5.0 | 4.0 | 0.00 | 0.00 | 0.00 | 1018.6 | |
| 20260831073002 | 68 | 346 | 7.0 | 5.0 | 0.00 | 0.00 | 0.00 | 1018.5 | |
| 20260831071958 | 68 | 350 | 7.0 | 8.0 | 0.00 | 0.00 | 0.00 | 1018.5 | |
| 20260831070954 | 67 | 345 | 6.0 | 7.0 | 0.00 | 0.00 | 0.00 | 1018.5 | |
| 20260831065956 | 67 | 336 | 7.0 | 6.0 | 0.00 | 0.00 | 0.00 | 1018.5 | |
| 20260831064959 | 66 | 338 | 4.0 | 3.0 | 0.00 | 0.00 | 0.00 | 1018.4 | |
| 20260831064001 | 66 | 290 | 7.0 | 8.0 | 0.00 | 0.00 | 0.00 | 1018.3 | |
| 20260831062957 | 66 | 14 | 7.0 | 8.0 | 0.00 | 0.00 | 0.00 | 1018.2 | |
| 20260831061959 | 65 | 326 | 5.0 | 8.0 | 0.00 | 0.00 | 0.00 | 1018.0 | |
| 20260831060958 | 65 | 343 | 5.0 | 4.0 | 0.00 | 0.00 | 0.00 | 1017.4 | |
| 20260831055955 | 64 | 309 | 4.0 | 5.0 | 0.00 | 0.00 | 0.00 | 1016.9 | |
| 20260831054958 | 64 | 349 | 5.0 | 7.0 | 0.00 | 0.00 | 0.00 | 1016.8 | |
| 20260831053955 | 64 | 308 | 7.0 | 7.0 | 0.00 | 0.00 | 0.00 | 1016.7 | |
| 20260831052955 | 64 | 318 | 6.0 | 6.0 | 0.00 | 0.00 | 0.00 | 1016.6 | |
| 20260831051957 | 64 | 21 | 6.0 | 5.0 | 0.00 | 0.00 | 0.00 | 1016.2 | |
| 20260831051000 | 64 | 24 | 7.0 | 5.0 | 0.00 | 0.00 | 0.00 | 1016.4 | |
| 20260831050002 | 65 | 335 | 6.0 | 6.0 | 0.00 | 0.00 | 0.00 | 1017.1 | |
| 20260831044956 | 65 | 332 | 6.0 | 7.0 | 0.00 | 0.00 | 0.00 | 1017.0 |